Fergus Falls, MN

5:58 AM CST on November 13, 2019 (GMT -0600)
Fergus Falls Municipal-Mickelson

Weather History for KFFM - September, 2019

Change the Weather History Date:

Sunday, September 8, 2019

  Actual Average Record
Temperature  
Mean Temperature 56 °F -  
Max Temperature 62 °F 73 °F 96 °F (1959)
Min Temperature 51 °F 51 °F 38 °F (1965)
Degree Days  
Heating Degree Days 8    
Growing Degree Days 6 (Base 50)    
Moisture  
Dew Point 49 °F    
Average Humidity 78    
Maximum Humidity 88    
Minimum Humidity 59    
Precipitation  
Precipitation 0.00 in - - ()
Sea Level Pressure  
Sea Level Pressure 30.12 in    
Wind  
Wind Speed 6 mph ()    
Max Wind Speed 12 mph    
Max Gust Speed 16 mph    
Visibility 10.0 miles    
Events Rain    
Averages and records for this station are not official NWS values.
T = Trace of Precipitation, MM = Missing Value Source: Averaged Metar Reports

Daily Weather History Graph

Daily Weather History Graph

Search for Another Location

Airport or City:

Astronomy

Sep. 08, 2019 Rise Set
Actual Time 6:53 AM CDT 7:50 PM CDT
Civil Twilight 6:23 AM CDT 8:20 PM CDT
Nautical Twilight 5:46 AM CDT 8:57 PM CDT
Astronomical Twilight 5:07 AM CDT 9:35 PM CDT
Moon 5:16 PM CDT (9/8) 1:17 AM CDT (9/8)
Length of Visible Light 13h 57m
Length of Day
12h 56m
Waxing Gibbous, 75% of the Moon is Illuminated
Sep 8
Waxing Gibbous
Sep 13
Full
Sep 21
Last Quarter
Sep 28
New
Oct 5
First Quarter

Hourly Weather History & Observations

Time (CDT) Temp. Dew Point Humidity Pressure Visibility Wind Dir Wind Speed Gust Speed Precip Events Conditions
12:15 AM 51.8 °F 48.2 °F 88% 30.15 in 10.0 mi East 5.8 mph - N/A   Light Drizzle
12:19 AM 51.8 °F 48.2 °F 88% 30.14 in 10.0 mi East 4.6 mph - N/A Rain Light Rain
12:37 AM 51.8 °F 48.2 °F 88% 30.14 in 10.0 mi East 3.5 mph - N/A   Light Drizzle
12:56 AM 51.8 °F 48.2 °F 88% 30.13 in 10.0 mi East 6.9 mph - N/A Rain Light Rain
1:15 AM 51.8 °F 48.2 °F 88% 30.13 in 10.0 mi East 4.6 mph - N/A   Light Drizzle
1:16 AM 51.8 °F 48.2 °F 88% 30.13 in 10.0 mi East 4.6 mph - N/A   Light Drizzle
1:35 AM 51.8 °F 48.2 °F 88% 30.13 in 10.0 mi East 5.8 mph - N/A   Light Drizzle
1:36 AM 51.8 °F 48.2 °F 88% 30.13 in 10.0 mi East 4.6 mph - N/A   Light Drizzle
1:58 AM 51.8 °F 48.2 °F 88% 30.12 in 10.0 mi East 4.6 mph - N/A   Scattered Clouds
2:17 AM 51.8 °F 48.2 °F 88% 30.13 in 10.0 mi East 5.8 mph - N/A   Clear
2:35 AM 51.8 °F 48.2 °F 88% 30.13 in 10.0 mi East 5.8 mph - N/A   Clear
2:36 AM 51.8 °F 48.2 °F 88% 30.13 in 10.0 mi East 5.8 mph - N/A   Clear
2:55 AM 51.8 °F 48.2 °F 88% 30.13 in 10.0 mi East 4.6 mph - N/A   Mostly Cloudy
2:56 AM 51.8 °F 48.2 °F 88% 30.13 in 10.0 mi East 4.6 mph - N/A   Mostly Cloudy
3:15 AM 51.8 °F 48.2 °F 88% 30.13 in 10.0 mi East 5.8 mph - N/A   Light Drizzle
3:19 AM 51.8 °F 48.2 °F 88% 30.13 in 10.0 mi East 4.6 mph - N/A   Overcast
3:37 AM 51.8 °F 48.2 °F 88% 30.13 in 10.0 mi East 5.8 mph - N/A   Overcast
3:55 AM 51.8 °F 48.2 °F 88% 30.13 in 10.0 mi East 3.5 mph - N/A   Overcast
4:15 AM 51.8 °F 48.2 °F 88% 30.13 in 10.0 mi ESE 5.8 mph - N/A   Overcast
4:16 AM 51.8 °F 48.2 °F 88% 30.13 in 10.0 mi ESE 5.8 mph - N/A   Overcast
4:35 AM 51.8 °F 48.2 °F 88% 30.13 in 10.0 mi ESE 5.8 mph - N/A   Overcast
4:36 AM 51.8 °F 48.2 °F 88% 30.13 in 10.0 mi ESE 5.8 mph - N/A   Overcast
4:58 AM 51.8 °F 48.2 °F 88% 30.13 in 10.0 mi ESE 4.6 mph - N/A   Overcast
5:16 AM 51.8 °F 48.2 °F 88% 30.13 in 10.0 mi East 3.5 mph - N/A   Overcast
5:36 AM 51.8 °F 48.2 °F 88% 30.13 in 10.0 mi East 3.5 mph - N/A   Overcast
5:55 AM 51.8 °F 48.2 °F 88% 30.13 in 10.0 mi ESE 5.8 mph - N/A   Overcast
6:15 AM 51.8 °F 48.2 °F 88% 30.13 in 10.0 mi East 3.5 mph - N/A   Overcast
6:19 AM 51.8 °F 48.2 °F 88% 30.13 in 10.0 mi East 4.6 mph - N/A   Overcast
6:38 AM 51.8 °F 48.2 °F 88% 30.14 in 10.0 mi East 3.5 mph - N/A   Overcast
6:55 AM 51.8 °F 48.2 °F 88% 30.15 in 10.0 mi East 5.8 mph - N/A   Overcast
7:15 AM 51.8 °F 48.2 °F 88% 30.15 in 10.0 mi East 6.9 mph - N/A   Overcast
7:16 AM 51.8 °F 48.2 °F 88% 30.15 in 10.0 mi East 6.9 mph - N/A   Overcast
7:35 AM 51.8 °F 48.2 °F 88% 30.14 in 10.0 mi East 5.8 mph - N/A   Overcast
7:36 AM 51.8 °F 48.2 °F 88% 30.14 in 10.0 mi East 6.9 mph - N/A   Overcast
7:58 AM 51.8 °F 48.2 °F 88% 30.14 in 10.0 mi East 6.9 mph - N/A   Mostly Cloudy
8:17 AM 51.8 °F 48.2 °F 88% 30.14 in 10.0 mi ESE 5.8 mph - N/A   Mostly Cloudy
8:35 AM 53.6 °F 48.2 °F 82% 30.14 in 10.0 mi ESE 8.1 mph - N/A   Mostly Cloudy
8:36 AM 53.6 °F 48.2 °F 82% 30.14 in 10.0 mi ESE 9.2 mph - N/A   Mostly Cloudy
8:55 AM 53.6 °F 46.4 °F 77% 30.15 in 10.0 mi ESE 9.2 mph - N/A   Scattered Clouds
8:56 AM 53.6 °F 46.4 °F 77% 30.15 in 10.0 mi ESE 8.1 mph - N/A   Scattered Clouds
9:15 AM 53.6 °F 48.2 °F 82% 30.15 in 10.0 mi East 6.9 mph - N/A   Scattered Clouds
9:20 AM 53.6 °F 48.2 °F 82% 30.15 in 10.0 mi ESE 8.1 mph - N/A   Scattered Clouds
9:37 AM 53.6 °F 46.4 °F 77% 30.15 in 10.0 mi ESE 6.9 mph - N/A   Scattered Clouds
9:56 AM 53.6 °F 48.2 °F 82% 30.15 in 10.0 mi ESE 6.9 mph - N/A   Scattered Clouds
10:16 AM 55.4 °F 48.2 °F 77% 30.15 in 10.0 mi ESE 10.4 mph - N/A   Scattered Clouds
10:35 AM 55.4 °F 48.2 °F 77% 30.14 in 10.0 mi ESE 9.2 mph - N/A   Scattered Clouds
10:36 AM 55.4 °F 48.2 °F 77% 30.14 in 10.0 mi SE 9.2 mph - N/A   Scattered Clouds
10:59 AM 55.4 °F 48.2 °F 77% 30.14 in 10.0 mi ESE 11.5 mph - N/A   Scattered Clouds
11:16 AM 57.2 °F 48.2 °F 72% 30.14 in 10.0 mi ESE 9.2 mph - N/A   Mostly Cloudy
11:36 AM 57.2 °F 48.2 °F 72% 30.14 in 10.0 mi ESE 6.9 mph - N/A   Mostly Cloudy
11:55 AM 57.2 °F 48.2 °F 72% 30.13 in 10.0 mi East 8.1 mph - N/A   Mostly Cloudy
11:56 AM 57.2 °F 48.2 °F 72% 30.13 in 10.0 mi East 6.9 mph - N/A   Scattered Clouds
12:15 PM 59.0 °F 48.2 °F 67% 30.13 in 10.0 mi ESE 6.9 mph - N/A   Mostly Cloudy
12:20 PM 59.0 °F 48.2 °F 67% 30.13 in 10.0 mi ESE 10.4 mph - N/A   Mostly Cloudy
12:37 PM 60.8 °F 48.2 °F 63% 30.12 in 10.0 mi SE 8.1 mph - N/A   Mostly Cloudy
12:55 PM 60.8 °F 48.2 °F 63% 30.12 in 10.0 mi ESE 6.9 mph - N/A   Scattered Clouds
1:15 PM 60.8 °F 48.2 °F 63% 30.12 in 10.0 mi SE 9.2 mph - N/A   Scattered Clouds
1:35 PM 60.8 °F 48.2 °F 63% 30.12 in 10.0 mi SE 9.2 mph - N/A   Scattered Clouds
1:36 PM 60.8 °F 48.2 °F 63% 30.12 in 10.0 mi SE 9.2 mph - N/A   Scattered Clouds
1:58 PM 62.6 °F 48.2 °F 59% 30.12 in 10.0 mi ESE 8.1 mph - N/A   Scattered Clouds
2:17 PM 62.6 °F 50.0 °F 63% 30.12 in 10.0 mi ESE 6.9 mph - N/A   Clear
2:36 PM 62.6 °F 48.2 °F 59% 30.11 in 10.0 mi ESE 5.8 mph - N/A   Mostly Cloudy
2:55 PM 62.6 °F 48.2 °F 59% 30.11 in 10.0 mi ESE 8.1 mph - N/A   Overcast
2:56 PM 62.6 °F 48.2 °F 59% 30.11 in 10.0 mi ESE 6.9 mph - N/A   Overcast
3:19 PM 62.6 °F 50.0 °F 63% 30.11 in 10.0 mi ESE 5.8 mph - N/A   Overcast
3:37 PM 62.6 °F 50.0 °F 63% 30.10 in 10.0 mi ESE 6.9 mph - N/A   Overcast
3:55 PM 62.6 °F 51.8 °F 68% 30.11 in 10.0 mi ESE 5.8 mph - N/A   Overcast
3:56 PM 62.6 °F 51.8 °F 68% 30.11 in 10.0 mi ESE 5.8 mph - N/A   Overcast
4:15 PM 62.6 °F 51.8 °F 68% 30.11 in 10.0 mi ESE 8.1 mph - N/A   Overcast
4:16 PM 62.6 °F 51.8 °F 68% 30.10 in 10.0 mi SE 6.9 mph - N/A   Overcast
4:35 PM 62.6 °F 51.8 °F 68% 30.11 in 10.0 mi ESE 5.8 mph - N/A   Overcast
4:57 PM 60.8 °F 51.8 °F 72% 30.11 in 10.0 mi ESE 6.9 mph - N/A   Overcast
5:16 PM 60.8 °F 51.8 °F 72% 30.11 in 10.0 mi SE 6.9 mph - N/A   Overcast
5:35 PM 60.8 °F 50.0 °F 68% 30.10 in 10.0 mi ESE 10.4 mph - N/A   Overcast
5:36 PM 60.8 °F 50.0 °F 68% 30.10 in 10.0 mi ESE 9.2 mph - N/A   Overcast
5:55 PM 60.8 °F 51.8 °F 72% 30.09 in 10.0 mi ESE 9.2 mph - N/A   Overcast
5:56 PM 60.8 °F 51.8 °F 72% 30.09 in 10.0 mi ESE 9.2 mph - N/A   Overcast
6:19 PM 60.8 °F 50.0 °F 68% 30.09 in 10.0 mi SE 10.4 mph 16.1 mph N/A   Overcast
6:36 PM 60.8 °F 50.0 °F 68% 30.09 in 10.0 mi SE 8.1 mph - N/A   Overcast
6:56 PM 59.0 °F 51.8 °F 77% 30.10 in 10.0 mi ESE 8.1 mph - N/A   Overcast
7:15 PM 59.0 °F 50.0 °F 72% 30.09 in 10.0 mi ESE 5.8 mph - N/A   Overcast
7:16 PM 59.0 °F 50.0 °F 72% 30.09 in 10.0 mi ESE 6.9 mph - N/A   Overcast
7:35 PM 59.0 °F 50.0 °F 72% 30.09 in 10.0 mi ESE 6.9 mph - N/A   Overcast
7:39 PM 59.0 °F 50.0 °F 72% 30.09 in 10.0 mi ESE 9.2 mph - N/A   Overcast
7:58 PM 59.0 °F 50.0 °F 72% 30.09 in 10.0 mi ESE 10.4 mph 16.1 mph N/A   Overcast
8:15 PM 57.2 °F 51.8 °F 82% 30.09 in 10.0 mi ESE 9.2 mph - N/A   Overcast
8:35 PM 57.2 °F 51.8 °F 82% 30.09 in 10.0 mi SE 6.9 mph - N/A   Overcast
8:55 PM 57.2 °F 51.8 °F 82% 30.09 in 10.0 mi ESE 6.9 mph - N/A   Overcast
8:56 PM 57.2 °F 51.8 °F 82% 30.09 in 10.0 mi ESE 6.9 mph - N/A   Overcast
9:18 PM 57.2 °F 51.8 °F 82% 30.09 in 10.0 mi ESE 6.9 mph - N/A   Overcast
9:35 PM 57.2 °F 51.8 °F 82% 30.09 in 10.0 mi ESE 9.2 mph - N/A   Overcast
9:55 PM 57.2 °F 51.8 °F 82% 30.09 in 10.0 mi ESE 9.2 mph - N/A   Overcast
9:56 PM 57.2 °F 51.8 °F 82% 30.09 in 10.0 mi ESE 9.2 mph - N/A   Overcast
10:15 PM 57.2 °F 51.8 °F 82% 30.10 in 10.0 mi SE 9.2 mph - N/A   Overcast
10:16 PM 57.2 °F 51.8 °F 82% 30.10 in 10.0 mi SE 9.2 mph - N/A   Overcast
10:38 PM 57.2 °F 51.8 °F 82% 30.10 in 10.0 mi SE 8.1 mph - N/A   Overcast
10:56 PM 57.2 °F 51.8 °F 82% 30.11 in 10.0 mi ESE 6.9 mph - N/A   Overcast
11:16 PM 57.2 °F 51.8 °F 82% 30.12 in 10.0 mi SE 9.2 mph - N/A   Overcast
11:35 PM 57.2 °F 51.8 °F 82% 30.11 in 10.0 mi ESE 6.9 mph - N/A   Overcast
11:36 PM 57.2 °F 51.8 °F 82% 30.11 in 10.0 mi ESE 8.1 mph - N/A   Overcast
11:55 PM 57.2 °F 51.8 °F 82% 30.10 in 10.0 mi ESE 6.9 mph - N/A   Overcast